OPS 4682 DEB, 17722

Orbit data source: Space-Track

OPS 4682 DEB, 17722 is space debris in LEO originally from a launch on Sat, 03 Apr 1965 UTC launched from the Air Force Western Test Range (AFWTR). Debris objects in space refer to the collection of defunct objects orbiting the Earth. Examples of debris include non-operational satellites, rocket bodies, and fragments generated from explosions, collisions, or faulty payload assembly.

Loading next visibility...
Identifier
17722, 1965-027W
Orbit
LEO
Country
Flag of USUS
Related business
Manufacturer
Unknown
Mission
Spacecraft
Bus & Motor
Unknown
Mass
Unknown
Launch date (UTC)
1965-04-03 (61 years ago)
Launch vehicle
Unknown
Launch site
Air Force Western Test Range (AFWTR)
Object type
Payload
Rocket body
Debris
Shape & HBR
Unknown shape, 0.1 m
Radar Cross Section
Medium (>0.1 m² and <1 m²)

Expand to show TLE details & history
Last TLE update: 22 hours ago

TLE from 22 hours ago
0 OPS 4682 DEB
1 17722U 65027W   26174.97389413  .00000564  00000-0  18777-2 0  9990
2 17722  90.2345 354.5308 0001985 185.6423 328.1519 12.98958658945237
Epoch: 2026-06-23T23:22Z
TLE epoch observation values (Epoch: 2026-06-23T23:22:24.452Z)
Latitude
26.24827°
Longitude
-88.0938°
Altitude
1,268.07 km
Speed
7.224 km/s
True Right ascension
11h 38m 35s
True Declination
26° 07' 16"
Sunlit
Object was in daylight at epoch
Visualization orbit readout
Latitude
Unknown
Longitude
Unknown
Altitude
Unknown
Speed
Unknown
Apparent Right ascension
Unknown
Apparent Declination
Unknown
Sunlit
N/A
Visualization observer readout
Local Sidereal Time
08:56:26
Azimuth
Unknown
Elevation
Unknown
Doppler factor
Unknown
Orbital elements
Apogee altitude
1,264.815 km
Perigee altitude
1,261.781 km
Semi-major axis
7,641.435 km
Eccentricity
0.0002
Inclination
90.2345°
RAAN
354.5308°
Arg. of periapsis
185.6423°
True anomaly
328.13989°
Mean anomaly
328.1519°
Eccentric anomaly
328.1459°
Mean motion
3.24923 °/min
Orbital period
110.8 mins
BSTAR
0.0018777
Loading maneuver chart data...
Computing Atmospheric mass density...
Loading historical data...
Loading historical data...
Loading historical data...
Loading historical data...
Loading historical data...
Loading historical data...
Loading historical data...

Documentation

Showing up to 5 results
|